Reflectivity
-20 -20 -20 -20 -20 -20 -20 -20 -20 -20 -20 -20 -20 -20 -20 -20 -20 -20 -20 -20 -20 -20 -20 -20 -20 -20 -20 -20 -20 -20 -20 -20 -20 -20 -20 -20 -20 -20 -20 -20 -20 -20 -20 -20
-20 -20 -20 -20 -20 -20 -20 -20 -20 -20 -20 -20 -20 -20 -20 -20 -20 -20 -20 -20 -20 -20 -20 -20 -20 -20 -20 -20 -20 -20 -20 -20 -20 -20 -20 -20 -20 -20 -20 -20 -20 -20 -20 -20
-20 -20 -20 -20 -20 -20 -20 -20 -20 -20 -20 -20 -20 -20 -20 -20 -20 -20 -20 -20 -20 -20 -20 -20 -20 -20 -20 -20 -20 -20 -20 -20 -20 -20 -20 -20 -20 -20 -20 -20 -20 -20 -20 -20
-20 -20 -20 -20 -20 -20 -20 -20 -20 -20 -20 -20 -20 -20 -20 -20 -20 -20 -20 -19 -20 -20 -20 -20 -20 -20 -20 -20 -20 -20 -20 -20 -20 -20 -20 -20 -20 -20 -20 -20 -20 -20 -20 -20
-20 -20 -20 -20 -20 -20 -20 -20 -20 -20 -20 -20 -20 -20 -20 -20 -20 -20 -20 -20 -20 -18 -20 -20 -20 -20 -20 -20 -20 -20 -20 -20 -20 -20 -20 -20 -20 -20 -20 -20 -20 -20 -20 -20
-20 -20 -20 -20 -20 -20 -20 -20 -20 -20 -20 -20 -20 -20 -20 -20 -20 -20 -20 -20 -20 -20 4 -20 -20 -20 -20 -20 -20 -20 -20 -20 -20 -20 -20 -20 -20 -20 -20 -20 -20 -20 -20 -20
-20 -20 -20 -20 -20 -20 -20 -20 -20 -20 -20 -20 -20 -20 -20 -20 -20 -20 -20 -20 -20 -20 13 -20 -20 -20 -20 -20 -20 -20 -20 -20 -20 -20 -20 -20 -20 -20 -20 -20 -20 -20 -20 -20
-20 -20 -20 -20 -20 -20 -20 -20 -20 -20 -20 -20 -20 -20 -1 -20 -20 -20 -20 -20 -20 -20 -1 -20 -20 -20 -20 -20 -20 -20 -20 -20 -20 -20 -20 -20 -20 -20 -20 -20 -20 -20 -20 -20
-20 -20 -20 -20 -20 -20 -20 -20 -20 -20 -20 -20 -20 -20 -20 -20 -20 -20 -20 -20 -20 -20 -20 -20 -20 -20 -20 -20 -20 -20 -20 -20 -20 -20 -20 -20 -20 -20 -20 -20 -20 -20 -20 -20
-20 -20 -20 -20 -20 -20 -20 -20 -20 -20 -20 -20 -20 -20 -20 -20 -20 -20 -20 -20 -20 -20 -20 -20 -20 -20 -20 -20 -20 -20 -20 -20 -20 -20 -20 -20 -20 -20 -20 -20 -20 -20 -20 -20
-20 -20 -20 -20 -20 -20 -20 -20 -20 -20 -20 -20 -20 -20 -20 -20 -20 -20 -20 -20 -20 -20 -20 -20 -20 -20 -20 -20 -20 -20 -20 -20 -20 -20 -20 -20 -20 -20 -20 -20 -20 -20 -20 -20
-20 -20 -20 -20 -20 -20 -20 -20 -20 -20 -20 -20 -20 -20 -20 -20 -20 -20 -20 -20 -20 -20 -20 -20 -20 -20 -20 -20 -20 -20 -20 -20 -20 -20 -20 -20 -20 -20 -20 -20 -20 -20 -20 -20
-20 -20 -20 -20 -20 -20 -20 -20 -20 -20 -20 -20 -20 -20 -20 -20 -20 -20 -20 -20 -20 -20 -20 -20 -20 -20 -20 -20 -20 -20 -20 -20 -20 -20 -20 -20 -20 -20 -20 -20 -20 -20 -20 -20
-20 -20 -20 -20 -20 -20 -20 -20 -20 -20 -20 -20 -20 -20 -20 -20 -20 -20 -20 -20 -20 -20 -20 -20 -20 -20 -20 -20 -20 -20 -20 -20 -20 -20 -20 -20 -20 -20 -20 -20 -20 -20 -20 -20
-20 -20 -20 -20 -20 -20 -20 -20 -20 -20 -20 -20 -20 -20 -20 -20 -20 -4 -4 -20 -20 -20 -20 -20 -20 -20 -20 -20 -20 -20 -20 -20 -20 -20 -20 -20 -20 -20 -20 -20 -20 -20 -20 -20
-20 -20 -20 -20 -20 -20 -20 -20 -20 -20 -20 -20 -20 -20 -20 -20 -20 -2 -20 -20 -20 -19 -20 -20 -20 -20 -20 -20 -20 -20 -20 -20 -20 -20 -20 -20 -20 -20 -20 -20 -20 -20 -20 -20
-20 -20 -20 -20 -20 -20 -20 -20 -20 -20 -20 -20 -20 -20 -20 -20 -20 -20 -20 -20 -20 -16 -20 -20 -13 2 -12 -20 -20 -20 -20 -20 -20 -20 -20 -20 -20 -20 -20 -20 -20 -20 -20 -20
-20 -20 -20 -20 -20 -20 -20 -20 -20 -20 -20 -20 -20 -20 -20 -20 -20 -20 -20 -19 -20 -20 -20 -20 -20 -18 6 8 13 -20 -20 -20 -20 -20 -20 -20 -20 -20 -20 -20 -20 -20 -20 -20
-20 -20 -20 -20 -20 -20 -20 -20 -20 -20 -20 -20 -20 -20 -20 -20 -20 -20 -20 -20 -20 -20 -20 27 18 3 31 29 -12 -16 -20 12 4 -20 -20 -20 -20 -20 -20 -20 -20 -20 -20 -3
-20 -20 -20 -20 -20 -20 -20 -20 -20 -20 -20 -20 -20 -20 -20 -20 -20 -20 -20 -20 -20 -20 -19 -20 -5 20 24 35 22 -6 -20 8 -20 1 -5 -20 -20 -20 -20 -20 -20 -6 -12 -9
-20 -20 -20 -20 -20 -20 -20 -20 -20 -20 -20 -20 -20 -20 -20 -20 -20 -20 -20 -20 -20 -20 -20 -18 23 -12 23 32 32 21 11 -8 9 -12 -3 1 -6 0 -13 -10 -20 -19 -19 -20
-20 -20 -20 -20 -20 -20 -20 -20 -20 -20 -20 -20 -20 -20 -20 -20 -20 -20 -20 -20 -20 -20 -20 -20 -20 -20 10 14 23 41 27 -9 -5 -2 4 -20 -20 -20 -15 -4 5 10 -16 -20
-20 -20 -20 -20 -20 -20 -20 -20 -20 -20 -20 -20 -20 -20 -20 -20 -20 -20 -20 -20 -20 -20 -20 -20 -20 -20 -16 10 6 9 36 22 -9 18 -20 -17 -20 -20 -14 -4 -4 -15 -1 -11
-20 -20 -20 -20 -20 -20 -20 -20 -20 -20 -20 -20 -20 -20 -20 -20 -20 -20 -20 -20 -20 -20 -20 -20 -20 -20 -14 -20 -0 11 25 -5 -1 -17 -2 -2 -11 -0 -1 -19 -7 -1 -2 -1
-20 -20 -20 -20 -20 -20 -20 -20 -20 -20 -20 -20 -20 -20 -20 -20 -20 -20 -20 -20 -20 -20 -20 -20 -20 -20 -20 -20 -9 3 5 -12 7 -16 -12 -11 -4 -16 -13 -20 -20 -20 -9 5
-20 -20 -20 -20 -20 -20 -20 -20 -20 -20 -20 -20 -20 -20 -20 -20 -20 -20 1 -13 -20 -20 -20 -20 -20 -20 -20 -20 -6 -7 2 -17 -2 -17 -20 -20 -20 -20 -20 -20 -20 10 7 3
Wind_Speed
6 9 6 9 9 10 11 10 6 7 4 8 8 6 9 14 16 16 17 18 19 19 19 18 17 15 14 13 13 13 13 11 9 8 8 7 7 6 5 5 4 5 4 3
9 11 1 5 8 8 8 8 7 4 3 7 5 8 11 14 16 17 18 18 19 20 20 19 17 16 16 15 14 14 14 13 11 8 7 6 5 5 5 4 3 5 4 3
13 7 2 5 7 9 3 10 8 8 3 4 5 8 13 15 13 15 16 18 18 20 20 20 18 17 16 15 16 16 15 14 12 11 7 6 5 5 6 6 6 4 4 3
9 1 9 12 10 8 7 6 5 1 8 8 3 3 10 14 16 18 18 17 18 19 19 19 19 17 17 16 15 15 15 15 13 13 10 11 8 7 6 6 4 2 4 4
4 4 7 12 8 5 8 6 6 5 10 9 7 8 8 10 14 19 20 20 19 18 20 20 20 18 15 16 14 14 14 15 14 14 12 10 10 6 6 5 3 4 4 5
12 3 6 6 4 7 10 10 10 8 9 6 6 9 12 7 9 16 20 21 20 20 19 20 18 17 16 14 13 13 14 14 15 14 14 13 10 9 6 5 4 4 4 5
11 14 13 7 12 9 9 13 6 4 6 6 3 8 11 5 2 6 18 21 20 20 18 19 20 18 15 14 14 12 14 15 16 16 15 14 13 11 9 7 7 5 5 4
5 11 15 11 15 8 6 10 9 4 2 4 3 2 10 8 3 4 10 18 21 21 20 20 20 16 15 15 15 15 15 14 16 16 16 13 12 9 9 9 8 7 5 3
3 4 7 3 3 6 5 10 7 9 5 8 3 8 13 13 13 8 8 13 19 21 21 21 20 18 16 16 15 15 15 15 16 17 14 14 13 13 10 9 8 8 7 4
2 5 2 9 4 4 7 4 7 5 2 5 7 3 10 10 13 11 6 10 14 16 19 20 19 19 17 17 17 17 16 16 16 15 14 13 14 14 12 10 11 10 8 7
8 7 9 6 3 4 7 9 2 3 6 3 4 8 8 10 8 12 9 1 11 14 17 18 18 17 17 16 15 15 15 15 14 14 14 14 14 14 13 12 12 12 11 10
7 7 2 9 6 2 2 5 9 7 9 3 6 5 10 12 10 10 10 6 3 8 13 14 15 15 16 15 14 12 13 14 15 14 14 15 14 13 14 14 14 12 12 12
6 8 8 9 9 5 3 3 3 5 2 3 8 8 8 14 12 11 12 11 5 4 8 11 13 14 14 14 14 14 13 13 13 13 14 14 14 14 15 15 15 14 13 13
4 5 9 4 5 5 7 4 1 8 7 5 7 10 17 16 14 13 14 13 9 2 6 8 9 10 10 11 11 11 12 12 11 13 13 14 15 15 15 14 14 14 13 14
6 4 4 2 2 2 3 4 3 6 7 8 12 10 12 11 13 14 15 18 16 12 8 4 5 5 6 9 11 11 12 11 12 12 12 13 13 13 13 12 13 14 13 13
4 3 5 5 3 4 7 3 4 3 1 4 4 5 8 9 11 12 12 12 13 16 17 13 8 3 2 6 9 10 11 12 12 13 13 12 12 12 12 12 13 13 13 12
8 5 7 12 5 7 10 11 6 3 1 7 7 9 5 8 10 9 10 13 14 14 17 18 18 17 14 9 5 8 10 10 12 13 13 12 12 13 12 12 12 12 11 11
10 8 5 10 3 14 6 5 2 5 1 3 5 5 8 8 8 8 9 7 11 12 14 15 16 16 19 20 18 12 12 6 9 10 11 11 11 12 11 11 11 10 10 11
10 10 8 9 11 9 7 4 2 5 8 4 4 5 5 6 9 6 6 7 8 6 6 7 8 11 11 17 20 19 12 4 5 7 8 8 9 9 8 9 9 8 8 8
5 8 9 4 14 13 11 7 2 3 6 4 2 2 3 4 8 7 6 5 2 1 6 5 2 4 10 12 15 17 15 13 8 7 5 4 5 6 7 7 7 6 4 9
5 5 10 9 8 4 6 4 1 10 6 5 3 2 2 4 5 5 5 7 8 6 5 8 7 6 5 11 11 14 16 13 13 10 6 6 4 1 3 4 2 4 8 10
5 5 5 4 5 7 4 5 6 6 4 3 4 5 3 1 2 5 10 10 10 10 9 5 9 6 4 6 8 5 22 14 11 10 7 5 5 3 3 4 4 5 7 8
5 4 6 6 7 7 3 3 1 3 4 2 3 3 2 3 3 4 8 11 13 13 11 10 8 6 5 7 4 9 20 11 9 7 6 5 5 5 5 6 7 7 5 5
4 2 5 3 6 4 2 1 3 3 5 6 7 6 5 4 3 5 8 9 11 10 9 10 8 10 10 8 11 11 10 7 6 4 3 4 4 4 6 5 5 6 6 5
5 4 6 7 4 6 5 3 2 1 1 4 5 7 5 3 3 5 6 5 7 8 8 7 9 11 12 8 10 11 5 4 5 2 3 4 4 4 4 4 4 4 4 2
10 10 8 3 7 1 6 4 2 2 1 1 1 3 1 4 5 4 3 4 4 6 5 7 8 10 9 4 3 4 6 5 5 5 5 4 4 3 4 4 5 13 10 8
Wind_Direction
198 247 242 8 336 321 317 318 331 45 119 193 200 185 169 174 189 179 185 185 189 192 185 184 188 190 194 191 190 193 195 188 192 199 201 207 217 209 224 233 248 272 269 217
203 239 8 324 297 302 314 276 63 121 118 213 154 220 185 187 195 189 187 191 192 193 188 189 187 193 197 195 197 197 203 194 200 199 211 221 225 224 237 243 269 275 263 231
250 85 85 270 300 298 138 6 8 1 133 195 275 209 190 190 203 200 199 195 197 195 194 185 193 196 200 200 200 202 202 199 202 216 202 202 231 248 232 232 232 225 250 251
254 286 260 264 267 285 285 10 338 239 278 14 290 40 176 187 200 202 200 204 198 197 200 192 192 201 204 204 200 203 204 204 198 201 209 215 226 226 217 226 212 175 221 203
115 223 220 239 257 302 346 344 315 289 279 275 141 251 102 183 204 207 206 199 201 196 197 199 192 196 206 201 201 198 201 206 207 199 218 207 226 214 223 217 163 235 194 212
274 109 271 270 279 249 303 274 237 231 265 238 54 292 127 156 217 205 203 205 196 198 202 199 199 193 202 201 199 194 194 203 203 201 203 214 213 230 233 212 217 224 202 179
213 226 232 242 258 217 234 251 274 254 197 40 58 263 56 69 161 200 197 196 198 195 193 202 199 193 198 201 198 197 190 198 201 199 202 209 211 208 222 233 222 226 212 198
257 175 196 179 234 317 236 318 301 271 298 61 150 10 72 19 13 210 183 190 190 196 189 204 198 193 194 204 203 200 191 197 200 202 203 205 210 213 216 216 246 227 241 221
229 131 131 200 229 261 160 239 351 293 208 259 65 113 95 47 48 82 162 176 186 194 193 202 201 202 201 205 208 206 201 199 201 203 202 204 204 217 214 225 212 227 234 237
80 206 124 123 181 92 290 17 214 202 228 288 125 211 61 18 21 27 116 171 182 197 199 198 207 204 206 206 210 207 204 204 203 208 203 207 207 208 214 214 220 231 234 221
259 271 142 183 336 76 166 199 198 347 312 311 259 96 36 20 12 9 14 159 182 190 198 203 201 209 207 214 211 208 207 205 201 202 205 211 208 208 209 215 218 220 222 218
216 287 192 91 112 44 318 41 277 282 146 58 316 62 71 33 5 354 5 12 329 202 194 201 202 203 213 204 211 213 209 204 205 203 208 211 213 209 211 217 219 217 218 217
168 241 154 182 168 182 240 72 350 316 281 128 313 92 94 34 20 7 355 343 338 226 208 197 196 193 202 212 207 205 213 210 204 203 210 219 214 214 217 219 221 214 216 217
271 275 290 308 50 97 174 179 348 302 293 30 308 359 38 20 18 21 8 3 5 8 194 209 204 191 193 204 203 204 213 212 208 208 212 222 221 219 220 221 221 220 214 218
285 261 271 15 73 215 187 198 204 288 357 305 357 335 32 29 33 29 17 15 26 45 46 104 207 200 214 207 211 205 213 209 205 210 222 227 232 229 221 224 219 221 223 220
316 254 249 210 205 238 238 211 258 308 326 266 291 93 48 54 66 39 31 43 42 27 29 59 66 57 215 238 232 222 215 213 208 208 215 221 226 232 230 224 220 219 219 223
288 282 233 252 189 244 243 232 228 347 310 321 331 49 57 57 54 61 52 56 53 52 46 26 28 34 29 12 298 260 236 227 214 212 212 214 217 223 228 231 233 230 224 223
273 254 248 263 180 236 46 61 22 290 36 61 89 84 80 83 85 84 68 58 53 61 58 55 48 29 13 19 12 10 324 239 244 236 233 221 220 225 226 226 229 228 219 210
236 252 239 251 229 244 156 151 223 258 107 61 76 106 113 135 140 101 99 72 55 40 41 55 46 50 40 14 356 360 5 340 272 261 257 248 243 243 239 237 234 228 219 207
200 248 258 193 259 255 64 90 75 261 190 87 32 93 96 204 250 112 206 169 126 24 19 3 317 88 32 26 357 350 354 336 2 7 343 291 255 244 241 231 221 214 198 136
166 210 226 214 252 127 80 80 185 232 69 71 54 71 193 262 8 112 188 227 233 235 291 351 331 299 109 75 1 336 331 340 334 339 19 30 20 170 191 183 186 150 124 144
240 251 203 235 247 229 100 155 296 56 133 62 82 116 128 322 254 236 232 248 247 261 253 267 298 329 328 98 100 295 313 317 320 335 358 48 55 46 70 118 111 112 131 143
241 316 345 319 49 88 77 16 49 314 310 274 246 192 242 222 216 219 243 242 252 259 253 267 235 261 266 294 143 212 248 300 308 335 345 31 54 85 91 102 107 105 116 147
184 256 255 257 119 109 37 267 245 235 268 260 234 244 239 281 310 272 254 254 260 260 253 246 229 226 235 240 253 256 265 276 313 307 350 48 65 84 107 115 117 120 139 152
16 163 234 242 232 133 124 80 85 108 258 239 231 243 237 309 341 15 344 294 277 279 277 241 241 247 254 242 230 231 233 237 248 236 167 124 112 118 106 86 73 112 111 84
214 229 222 277 79 285 107 120 149 214 213 167 169 183 223 309 321 340 300 323 320 313 283 260 238 237 244 200 239 289 245 214 244 202 178 123 155 137 127 135 109 51 46 43